Weather Roundup
Issued by NWS

Home | Current Version | Previous Version | Text Only | Print | Product List | Glossary On
Versions: 1 2 3 4 5 6 7 8 9 10 11 12 13 14 15 16 17 18 19 20 21 22 23 24 25 26 27 28 29 30 31 32 33 34 35 36 37 38 39 40 41 42 43 44 45 46 47 48 49 50
030
NZUS93 KARX 242010
HRRWXR

CURRENT HOURLY OBSERVATIONS ACROSS
MUCH OF THE UPPER MISSISSIPPI VALLEY
NATIONAL WEATHER SERVICE LA CROSSE WI
300 PM CDT TUE MAY 24 2016


...SOUTHEAST MINNESOTA...


CITY           SKY/WX    TMP DP  RH WIND       PRES   REMARKS
ROCHESTER      CLOUDY    77  62  59 SW7       29.92F
ROCHESTER/MAYO FAIR      78  57  48 SE7       29.92S
WINONA         MOSUNNY   79  55  44 NW7       29.90F
AUSTIN         MOSUNNY   75  63  64 S3        29.92S
ALBERT LEA     SUNNY     79  59  50 SE6       29.91S
DODGE CENTER   CLOUDY    82  55  39 S3        29.91F
PRESTON        SUNNY     77  58  52 CALM      29.93S
OWATONNA       CLOUDY    82  54  36 S5        29.89F
FARIBAULT      MOSUNNY   84  57  39 S5        29.89S
$$

...ELSEWHERE IN MINNESOTA...


CITY           SKY/WX    TMP DP  RH WIND       PRES   REMARKS
MINNEAPOLIS    MOSUNNY   84  55  36 NW6       29.88F
INTNL FALLS    MOSUNNY   79  47  32 SW5G17    29.85F
DULUTH         MOSUNNY   75  54  47 N3        29.90R
RED WING       MOSUNNY   82  55  39 N3        29.87F
REDWOOD FALLS  SUNNY     81  62  52 S9        29.86F
MANKATO        PTSUNNY   81  59  47 CALM      29.88F
WORTHINGTON    SUNNY     78  63  59 VRB5      29.90S
FAIRMONT       SUNNY     79  59  50 CALM      29.89S
$$

...SOUTHWEST WISCONSIN...


CITY           SKY/WX    TMP DP  RH WIND       PRES   REMARKS
LA CROSSE      PTSUNNY   80  59  48 E6        29.89F
PRAIRIE DU CHI MOSUNNY   81  56  42 CALM      29.90S
BOSCOBEL       MOSUNNY   82  60  47 W3        29.91F
LONE ROCK      PTSUNNY   80  60  50 S9        29.92F
PLATTEVILLE    MOSUNNY   80  61  53 SW6       29.94S
FORT MC COY    CLOUDY    80  60  51 SW6       29.92S
MAUSTON-NEW LI PTCLDY    80  59  49 NW3       29.91F
VIROQUA        FAIR      80  56  43 S5        29.93F
WIS DELLS      PTSUNNY   82  55  40 S12       29.92S
$$

...ELSEWHERE IN WISCONSIN...


CITY           SKY/WX    TMP DP  RH WIND       PRES   REMARKS
MILWAUKEE      PTSUNNY   82  56  40 SW14      29.92F
MADISON        CLOUDY    78  59  51 VRB6      29.93F
GREEN BAY      CLOUDY    83  57  41 SW16G25   29.88F
EAU CLAIRE     CLOUDY    81  58  45 SW12G17   29.88F
BLACK RVR FLS  FAIR      82  52  36 W10       29.90F
MEDFORD        CLOUDY    73  61  66 W9        29.92F
WAUSAU         CLOUDY    76  61  59 S7        29.90F
WIS RAPIDS     CLOUDY    80  55  42 W12       29.92F
MARSHFIELD     PTSUNNY   80  57  45 NW15      29.91S
RICE LAKE      MOSUNNY   81  49  32 W12G17    29.90F
$$

...NORTHEAST IOWA...


CITY           SKY/WX    TMP DP  RH WIND       PRES   REMARKS
WATERLOO       PTSUNNY   81  60  48 S7        29.90R
DUBUQUE        PTSUNNY   75  67  76 NW5       29.94F HAZE
DECORAH        PTSUNNY   81  57  44 CALM      29.91R
MASON CITY     MOSUNNY   77  64  64 VRB3      29.93R
CHARLES CITY   MOSUNNY   79  59  50 VRB6      29.92S
OELWEIN        MOSUNNY   81  59  47 VRB7G14   29.92S
$$

...ELSEWHERE IN IOWA...


CITY           SKY/WX    TMP DP  RH WIND       PRES   REMARKS
DES MOINES     PTSUNNY   81  62  52 CALM      29.91S
IOWA CITY      PTSUNNY   83  61  47 SW12      29.92S
FORT DODGE     MOSUNNY   77  63  61 S6        29.92S
MARSHALLTOWN   MOSUNNY   77  65  66 SE7       29.91S
CEDAR RAPIDS   PTSUNNY   83  65  54 VRB10     29.91R
$$

...NORTHERN ILLINOIS...


CITY           SKY/WX    TMP DP  RH WIND       PRES   REMARKS
CHICAGO-OHARE  CLOUDY    82  51  34 S13G20    29.94F
CHICAGO-MIDWAY CLOUDY    88  48  25 SW14G21   29.95F
MOLINE         SUNNY     87  57  35 S8        29.90S
ROCKFORD       PTSUNNY   85  56  37 S9G20     29.94F
PEORIA         SUNNY     85  58  39 S15G21    29.94F
$$

NOTE: "FAIR" INDICATES FEW OR NO CLOUDS BELOW 12,000 FEET WITH NO
SIGNIFICANT WEATHER AND/OR OBSTRUCTIONS TO VISIBILITY. WIND
SPEEDS ARE IN MILES-PER-HOUR.




USA.gov is the U.S. government's official web portal to all federal, state and local government web resources and services.